Time,TemperatureF,DewpointF,PressureIn,WindDirection,WindDirectionDegrees,WindSpeedMPH,WindSpeedGustMPH,Humidity,HourlyPrecipIn,Conditions,Clouds,dailyrainin,SoftwareType,DateUTC
2013-02-13 00:02:00,28.0,17.0,29.85,West,270,6.0,9.0,64,0.00,,,0.06,,2013-02-13 06:02:00,
2013-02-13 00:11:00,27.0,17.0,29.85,West,269,4.0,7.0,65,0.00,,,0.06,,2013-02-13 06:11:00,
2013-02-13 00:21:00,27.0,17.0,29.85,West,269,4.0,7.0,65,0.00,,,0.06,,2013-02-13 06:21:00,
2013-02-13 00:32:00,27.0,17.0,29.84,West,269,3.0,5.0,66,0.00,,,0.06,,2013-02-13 06:32:00,
2013-02-13 00:42:00,26.0,16.0,29.84,West,269,3.0,5.0,66,0.00,,,0.06,,2013-02-13 06:42:00,
2013-02-13 00:52:00,26.0,16.0,29.84,West,269,3.0,5.0,66,0.00,,,0.06,,2013-02-13 06:52:00,
2013-02-13 01:02:00,27.0,17.0,29.85,West,273,4.0,7.0,65,0.00,,,0.06,,2013-02-13 07:02:00,
2013-02-13 01:11:00,28.0,17.0,29.84,West,270,5.0,8.0,63,0.00,,,0.06,,2013-02-13 07:11:00,
2013-02-13 01:22:00,28.0,17.0,29.84,West,270,5.0,8.0,63,0.00,,,0.06,,2013-02-13 07:22:00,
2013-02-13 01:31:00,28.0,17.0,29.84,West,265,6.0,8.0,64,0.00,,,0.06,,2013-02-13 07:31:00,
2013-02-13 01:41:00,28.0,17.0,29.84,West,265,6.0,8.0,64,0.00,,,0.06,,2013-02-13 07:41:00,
2013-02-13 01:52:00,30.0,19.0,29.84,West,273,6.0,11.0,63,0.00,,,0.06,,2013-02-13 07:52:00,
2013-02-13 02:01:00,30.0,19.0,29.83,West,277,7.0,10.0,62,0.00,,,0.06,,2013-02-13 08:01:00,
2013-02-13 02:11:00,30.0,19.0,29.83,West,277,7.0,10.0,62,0.00,,,0.06,,2013-02-13 08:11:00,
2013-02-13 02:21:00,31.0,20.0,29.82,West,265,8.0,10.0,62,0.00,,,0.06,,2013-02-13 08:21:00,
2013-02-13 02:32:00,31.0,19.0,29.82,WSW,256,10.0,12.0,61,0.00,,,0.06,,2013-02-13 08:32:00,
2013-02-13 02:43:00,31.0,19.0,29.82,WSW,256,10.0,12.0,61,0.00,,,0.06,,2013-02-13 08:43:00,
2013-02-13 02:52:00,31.0,20.0,29.82,West,262,8.0,12.0,63,0.00,,,0.06,,2013-02-13 08:52:00,
2013-02-13 03:01:00,31.0,20.0,29.82,West,266,8.0,10.0,63,0.00,,,0.06,,2013-02-13 09:01:00,
2013-02-13 03:11:00,31.0,20.0,29.82,West,266,8.0,10.0,63,0.00,,,0.06,,2013-02-13 09:11:00,
2013-02-13 03:21:00,32.0,20.0,29.81,West,273,7.0,9.0,61,0.00,,,0.06,,2013-02-13 09:21:00,
2013-02-13 03:31:00,33.0,20.0,29.81,West,263,8.0,10.0,59,0.00,,,0.06,,2013-02-13 09:31:00,
2013-02-13 03:42:00,33.0,19.0,29.80,West,263,3.0,8.0,57,0.00,,,0.06,,2013-02-13 09:42:00,
2013-02-13 03:52:00,33.0,19.0,29.80,West,263,3.0,8.0,57,0.00,,,0.06,,2013-02-13 09:52:00,
2013-02-13 04:01:00,32.0,19.0,29.79,WSW,245,7.0,11.0,59,0.00,,,0.06,,2013-02-13 10:01:00,
2013-02-13 04:11:00,30.0,19.0,29.79,WSW,257,6.0,9.0,63,0.00,,,0.06,,2013-02-13 10:11:00,
2013-02-13 04:21:00,30.0,19.0,29.79,WSW,257,6.0,9.0,63,0.00,,,0.06,,2013-02-13 10:21:00,
2013-02-13 04:32:00,30.0,19.0,29.78,WSW,242,8.0,12.0,62,0.00,,,0.06,,2013-02-13 10:32:00,
2013-02-13 04:42:00,30.0,19.0,29.78,WSW,252,8.0,12.0,63,0.00,,,0.06,,2013-02-13 10:42:00,
2013-02-13 04:52:00,30.0,19.0,29.78,WSW,252,8.0,12.0,63,0.00,,,0.06,,2013-02-13 10:52:00,
2013-02-13 05:01:00,29.0,18.0,29.78,WSW,256,11.0,18.0,63,0.00,,,0.06,,2013-02-13 11:01:00,
2013-02-13 05:11:00,29.0,18.0,29.78,WSW,256,11.0,18.0,63,0.00,,,0.06,,2013-02-13 11:11:00,
2013-02-13 05:22:00,29.0,18.0,29.78,WSW,256,11.0,18.0,63,0.00,,,0.06,,2013-02-13 11:22:00,
2013-02-13 05:32:00,29.0,17.0,29.77,WSW,246,6.0,11.0,61,0.00,,,0.06,,2013-02-13 11:32:00,
2013-02-13 05:42:00,29.0,17.0,29.77,WSW,246,6.0,11.0,61,0.00,,,0.06,,2013-02-13 11:42:00,
2013-02-13 05:52:00,29.0,17.0,29.77,WSW,246,6.0,11.0,61,0.00,,,0.06,,2013-02-13 11:52:00,
2013-02-13 06:02:00,29.0,18.0,29.76,West,262,3.0,6.0,62,0.00,,,0.06,,2013-02-13 12:02:00,
2013-02-13 06:11:00,30.0,17.0,29.75,West,270,6.0,16.0,59,0.00,,,0.06,,2013-02-13 12:11:00,
2013-02-13 06:22:00,30.0,17.0,29.75,West,270,6.0,16.0,59,0.00,,,0.06,,2013-02-13 12:22:00,
2013-02-13 06:32:00,30.0,18.0,29.75,West,262,5.0,8.0,60,0.00,,,0.06,,2013-02-13 12:32:00,
2013-02-13 06:42:00,29.0,17.0,29.75,West,269,4.0,12.0,60,0.00,,,0.06,,2013-02-13 12:42:00,
2013-02-13 06:52:00,29.0,17.0,29.75,West,269,4.0,12.0,60,0.00,,,0.06,,2013-02-13 12:52:00,
2013-02-13 07:02:00,29.0,18.0,29.74,NW,311,0.0,3.0,62,0.00,,,0.06,,2013-02-13 13:02:00,
2013-02-13 07:11:00,29.0,18.0,29.74,NW,311,0.0,3.0,62,0.00,,,0.06,,2013-02-13 13:11:00,
2013-02-13 07:21:00,28.0,16.0,29.74,WNW,300,2.0,4.0,59,0.00,,,0.06,,2013-02-13 13:21:00,
2013-02-13 07:32:00,26.0,15.0,29.74,WSW,257,1.0,5.0,63,0.00,,,0.06,,2013-02-13 13:32:00,
2013-02-13 07:41:00,25.0,15.0,29.74,WNW,285,1.0,5.0,65,0.00,,,0.06,,2013-02-13 13:41:00,
2013-02-13 07:52:00,25.0,15.0,29.74,WNW,285,1.0,5.0,65,0.00,,,0.06,,2013-02-13 13:52:00,
2013-02-13 08:01:00,27.0,17.0,29.73,WSW,237,4.0,5.0,65,0.00,,,0.06,,2013-02-13 14:01:00,
2013-02-13 08:11:00,27.0,17.0,29.73,WSW,237,4.0,5.0,65,0.00,,,0.06,,2013-02-13 14:11:00,
2013-02-13 08:21:00,30.0,18.0,29.73,WSW,250,8.0,10.0,60,0.00,,,0.06,,2013-02-13 14:21:00,
2013-02-13 08:31:00,27.0,15.0,29.72,West,260,3.0,5.0,61,0.00,,,0.06,,2013-02-13 14:31:00,
2013-02-13 08:42:00,28.0,17.0,29.73,West,260,0.0,4.0,63,0.00,,,0.06,,2013-02-13 14:42:00,
2013-02-13 08:52:00,28.0,17.0,29.73,West,260,0.0,4.0,63,0.00,,,0.06,,2013-02-13 14:52:00,
2013-02-13 09:01:00,30.0,18.0,29.73,West,260,0.0,3.0,60,0.00,,,0.06,,2013-02-13 15:01:00,
2013-02-13 09:11:00,30.0,18.0,29.72,WSW,240,2.0,4.0,60,0.00,,,0.06,,2013-02-13 15:11:00,
2013-02-13 09:21:00,30.0,18.0,29.72,WSW,240,2.0,4.0,60,0.00,,,0.06,,2013-02-13 15:21:00,
2013-02-13 09:32:00,30.0,18.0,29.71,WSW,246,3.0,6.0,61,0.00,,,0.06,,2013-02-13 15:32:00,
2013-02-13 09:42:00,30.0,18.0,29.71,WSW,246,3.0,6.0,61,0.00,,,0.06,,2013-02-13 15:42:00,
2013-02-13 09:52:00,31.0,19.0,29.71,WSW,257,1.0,6.0,61,0.00,,,0.06,,2013-02-13 15:52:00,
2013-02-13 10:01:00,31.0,19.0,29.72,South,187,2.0,7.0,60,0.00,,,0.06,,2013-02-13 16:01:00,
2013-02-13 10:11:00,31.0,18.0,29.71,WSW,251,7.0,9.0,59,0.00,,,0.06,,2013-02-13 16:11:00,
2013-02-13 10:21:00,31.0,18.0,29.71,WSW,251,7.0,9.0,59,0.00,,,0.06,,2013-02-13 16:21:00,
2013-02-13 10:31:00,32.0,20.0,29.71,SW,229,4.0,9.0,60,0.00,,,0.06,,2013-02-13 16:31:00,
2013-02-13 10:42:00,32.0,20.0,29.71,SW,229,4.0,9.0,60,0.00,,,0.06,,2013-02-13 16:42:00,
2013-02-13 10:52:00,32.0,19.0,29.71,WSW,244,8.0,13.0,58,0.00,,,0.06,,2013-02-13 16:52:00,
2013-02-13 11:01:00,31.0,19.0,29.71,West,261,5.0,10.0,61,0.01,,,0.07,,2013-02-13 17:01:00,
2013-02-13 11:11:00,31.0,19.0,29.71,West,261,5.0,10.0,61,0.01,,,0.07,,2013-02-13 17:11:00,
2013-02-13 11:21:00,31.0,18.0,29.71,WSW,250,4.0,6.0,59,0.01,,,0.07,,2013-02-13 17:21:00,
2013-02-13 11:31:00,31.0,19.0,29.70,WSW,254,2.0,5.0,60,0.01,,,0.07,,2013-02-13 17:31:00,
2013-02-13 11:41:00,31.0,19.0,29.70,WSW,254,2.0,5.0,60,0.01,,,0.07,,2013-02-13 17:41:00,
2013-02-13 11:52:00,32.0,19.0,29.70,SW,230,3.0,6.0,59,0.02,,,0.07,,2013-02-13 17:52:00,
2013-02-13 12:01:00,32.0,19.0,29.69,WSW,241,2.0,6.0,58,0.01,,,0.07,,2013-02-13 18:01:00,
2013-02-13 12:11:00,32.0,19.0,29.69,WSW,241,2.0,6.0,58,0.01,,,0.07,,2013-02-13 18:11:00,
2013-02-13 12:22:00,33.0,20.0,29.68,WSW,245,1.0,4.0,59,0.02,,,0.08,,2013-02-13 18:22:00,
2013-02-13 12:32:00,33.0,20.0,29.67,SSE,163,1.0,5.0,58,0.02,,,0.08,,2013-02-13 18:32:00,
2013-02-13 12:42:00,33.0,20.0,29.67,SSE,163,1.0,5.0,58,0.02,,,0.08,,2013-02-13 18:42:00,
2013-02-13 12:52:00,33.0,20.0,29.66,South,180,4.0,7.0,58,0.02,,,0.07,,2013-02-13 18:52:00,
2013-02-13 13:01:00,33.0,21.0,29.65,SE,137,3.0,8.0,61,0.02,,,0.07,,2013-02-13 19:01:00,
2013-02-13 13:11:00,33.0,21.0,29.64,South,176,4.0,7.0,60,0.02,,,0.08,,2013-02-13 19:11:00,
2013-02-13 13:21:00,33.0,21.0,29.64,South,176,4.0,7.0,60,0.02,,,0.08,,2013-02-13 19:21:00,
2013-02-13 13:31:00,33.0,21.0,29.64,South,176,4.0,7.0,60,0.02,,,0.08,,2013-02-13 19:31:00,
2013-02-13 13:41:00,33.0,21.0,29.64,South,176,4.0,7.0,60,0.02,,,0.08,,2013-02-13 19:41:00,
2013-02-13 13:52:00,33.0,21.0,29.64,South,176,4.0,7.0,60,0.02,,,0.08,,2013-02-13 19:52:00,
2013-02-13 14:02:00,32.0,22.0,29.61,ESE,121,3.0,8.0,65,0.02,,,0.08,,2013-02-13 20:02:00,
2013-02-13 14:11:00,31.0,22.0,29.60,ESE,107,4.0,7.0,69,0.01,,,0.08,,2013-02-13 20:11:00,
2013-02-13 14:21:00,31.0,22.0,29.60,ESE,107,4.0,7.0,69,0.01,,,0.08,,2013-02-13 20:21:00,
2013-02-13 14:31:00,32.0,23.0,29.60,SE,128,4.0,8.0,70,0.01,,,0.08,,2013-02-13 20:31:00,
2013-02-13 14:42:00,32.0,23.0,29.60,SE,128,4.0,8.0,70,0.01,,,0.08,,2013-02-13 20:42:00,
2013-02-13 14:52:00,32.0,23.0,29.60,SE,128,4.0,8.0,70,0.01,,,0.08,,2013-02-13 20:52:00,
2013-02-13 15:01:00,33.0,23.0,29.60,SW,214,2.0,7.0,67,0.01,,,0.09,,2013-02-13 21:01:00,
2013-02-13 15:11:00,33.0,23.0,29.60,SW,214,2.0,7.0,67,0.01,,,0.09,,2013-02-13 21:11:00,
2013-02-13 15:21:00,33.0,23.0,29.60,SW,214,2.0,7.0,67,0.01,,,0.09,,2013-02-13 21:21:00,
2013-02-13 15:31:00,34.0,25.0,29.59,WSW,257,8.0,12.0,70,0.01,,,0.09,,2013-02-13 21:31:00,
2013-02-13 15:42:00,34.0,25.0,29.59,WSW,257,8.0,12.0,70,0.01,,,0.09,,2013-02-13 21:42:00,
2013-02-13 15:52:00,33.0,25.0,29.59,West,261,9.0,12.0,72,0.01,,,0.09,,2013-02-13 21:52:00,
2013-02-13 16:02:00,33.0,25.0,29.59,WNW,292,9.0,13.0,71,0.00,,,0.08,,2013-02-13 22:02:00,
2013-02-13 16:11:00,33.0,25.0,29.59,WNW,292,9.0,13.0,71,0.00,,,0.08,,2013-02-13 22:11:00,
2013-02-13 16:21:00,34.0,26.0,29.59,West,275,10.0,14.0,71,0.00,,,0.08,,2013-02-13 22:21:00,
2013-02-13 16:31:00,34.0,26.0,29.59,West,275,10.0,14.0,71,0.00,,,0.08,,2013-02-13 22:31:00,
2013-02-13 16:42:00,34.0,26.0,29.59,West,275,10.0,14.0,71,0.00,,,0.08,,2013-02-13 22:42:00,
2013-02-13 16:51:00,34.0,26.0,29.59,West,275,10.0,14.0,71,0.00,,,0.08,,2013-02-13 22:51:00,
2013-02-13 17:01:00,34.0,25.0,29.59,West,259,9.0,15.0,69,0.01,,,0.09,,2013-02-13 23:01:00,
2013-02-13 17:11:00,34.0,25.0,29.59,West,259,9.0,15.0,69,0.01,,,0.09,,2013-02-13 23:11:00,
2013-02-13 17:21:00,34.0,25.0,29.59,WNW,284,8.0,15.0,70,0.01,,,0.09,,2013-02-13 23:21:00,
2013-02-13 17:32:00,34.0,25.0,29.59,WNW,284,8.0,15.0,70,0.01,,,0.09,,2013-02-13 23:32:00,
2013-02-13 17:42:00,34.0,25.0,29.59,WNW,284,8.0,15.0,70,0.01,,,0.09,,2013-02-13 23:42:00,
2013-02-13 17:52:00,34.0,25.0,29.59,WNW,284,8.0,15.0,70,0.01,,,0.09,,2013-02-13 23:52:00,
2013-02-13 18:02:00,33.0,25.0,29.60,NW,309,4.0,9.0,72,0.00,,,0.08,,2013-02-14 00:02:00,
2013-02-13 18:11:00,33.0,25.0,29.60,NW,309,4.0,9.0,72,0.00,,,0.08,,2013-02-14 00:11:00,
2013-02-13 18:21:00,33.0,25.0,29.60,NW,309,4.0,9.0,72,0.00,,,0.08,,2013-02-14 00:21:00,
2013-02-13 18:32:00,32.0,25.0,29.61,NNW,338,5.0,11.0,74,0.00,,,0.08,,2013-02-14 00:32:00,
2013-02-13 18:42:00,32.0,25.0,29.61,NNW,338,5.0,11.0,74,0.00,,,0.08,,2013-02-14 00:42:00,
2013-02-13 18:51:00,31.0,24.0,29.62,NNE,14,5.0,14.0,75,0.00,,,0.08,,2013-02-14 00:51:00,
2013-02-13 19:01:00,31.0,24.0,29.62,NNE,14,5.0,14.0,75,0.00,,,0.08,,2013-02-14 01:01:00,
2013-02-13 19:11:00,31.0,24.0,29.62,NNE,14,5.0,14.0,75,0.00,,,0.08,,2013-02-14 01:11:00,
2013-02-13 19:21:00,30.0,23.0,29.65,WNW,298,4.0,15.0,74,0.00,,,0.08,,2013-02-14 01:21:00,
2013-02-13 19:32:00,30.0,23.0,29.65,WNW,298,4.0,15.0,74,0.00,,,0.08,,2013-02-14 01:32:00,
2013-02-13 19:42:00,30.0,23.0,29.65,WNW,298,4.0,15.0,74,0.00,,,0.08,,2013-02-14 01:42:00,
2013-02-13 19:52:00,30.0,23.0,29.66,NNW,344,6.0,11.0,75,0.00,,,0.08,,2013-02-14 01:52:00,
2013-02-13 20:01:00,29.0,22.0,29.67,NNW,327,4.0,15.0,75,0.00,,,0.08,,2013-02-14 02:01:00,
2013-02-13 20:11:00,29.0,22.0,29.68,NNW,337,9.0,14.0,75,0.00,,,0.08,,2013-02-14 02:11:00,
2013-02-13 20:21:00,29.0,22.0,29.68,NNW,337,9.0,14.0,75,0.00,,,0.08,,2013-02-14 02:21:00,
2013-02-13 20:31:00,28.0,21.0,29.68,NNW,348,3.0,14.0,76,0.00,,,0.08,,2013-02-14 02:31:00,
2013-02-13 20:41:00,28.0,21.0,29.68,NNW,348,3.0,14.0,76,0.00,,,0.08,,2013-02-14 02:41:00,
2013-02-13 20:51:00,28.0,21.0,29.68,NNW,348,3.0,14.0,76,0.00,,,0.08,,2013-02-14 02:51:00,
2013-02-13 21:02:00,28.0,21.0,29.70,NW,315,3.0,11.0,76,0.00,,,0.08,,2013-02-14 03:02:00,
2013-02-13 21:11:00,28.0,22.0,29.70,WNW,303,3.0,9.0,77,0.00,,,0.08,,2013-02-14 03:11:00,
2013-02-13 21:21:00,28.0,22.0,29.70,WNW,303,3.0,9.0,77,0.00,,,0.08,,2013-02-14 03:21:00,
2013-02-13 21:31:00,28.0,22.0,29.72,West,277,2.0,10.0,77,0.00,,,0.08,,2013-02-14 03:31:00,
2013-02-13 21:42:00,28.0,22.0,29.72,West,277,2.0,10.0,77,0.00,,,0.08,,2013-02-14 03:42:00,
2013-02-13 21:51:00,28.0,22.0,29.72,West,277,2.0,10.0,77,0.00,,,0.08,,2013-02-14 03:51:00,
2013-02-13 22:01:00,27.0,21.0,29.73,NW,305,3.0,11.0,77,0.00,,,0.08,,2013-02-14 04:01:00,
2013-02-13 22:12:00,27.0,21.0,29.74,West,266,4.0,11.0,77,0.00,,,0.08,,2013-02-14 04:12:00,
2013-02-13 22:21:00,27.0,21.0,29.74,West,266,4.0,11.0,77,0.00,,,0.08,,2013-02-14 04:21:00,
2013-02-13 22:31:00,27.0,21.0,29.74,NW,306,3.0,11.0,77,0.00,,,0.08,,2013-02-14 04:31:00,
2013-02-13 22:41:00,27.0,21.0,29.74,NW,306,3.0,11.0,77,0.00,,,0.08,,2013-02-14 04:41:00,
2013-02-13 22:51:00,26.0,19.0,29.75,West,259,4.0,14.0,76,0.00,,,0.08,,2013-02-14 04:51:00,
2013-02-13 23:02:00,26.0,19.0,29.75,West,259,4.0,14.0,76,0.00,,,0.08,,2013-02-14 05:02:00,
2013-02-13 23:11:00,26.0,19.0,29.75,West,259,4.0,14.0,76,0.00,,,0.08,,2013-02-14 05:11:00,
2013-02-13 23:21:00,26.0,19.0,29.77,NE,43,4.0,16.0,76,0.00,,,0.08,,2013-02-14 05:21:00,
2013-02-13 23:32:00,26.0,19.0,29.77,NE,43,4.0,16.0,76,0.00,,,0.08,,2013-02-14 05:32:00,
2013-02-13 23:42:00,26.0,19.0,29.77,NE,43,4.0,16.0,76,0.00,,,0.08,,2013-02-14 05:42:00,
2013-02-13 23:52:00,25.0,19.0,29.78,WSW,250,2.0,12.0,76,0.00,,,0.08,,2013-02-14 05:52:00,